sat.trackr.live / text

‹ back to catalog

STARLINK-6082

NORAD 56110 · 2023-046T

PAYLOAD ACTIVE UNKNOWN

§ Identity

Operator
Country
US
Launch date
2023-03-29
Launch site
AFETR
Launch vehicle
Mass (kg)
RCS (m²)

Purposes: comms

External: N2YO · Heavens-Above · Gunter

§ Orbital elements

Epoch: 2026-09-19T23:32:20.459904Z

Period
94.27 min
Inclination
43.0033°
Eccentricity
0.0000897
Mean motion
15.27572307 rev/d
Perigee alt
482.5 km
Apogee alt
483.7 km
Semi-major
6,861.2 km
B*
-1.4058e-5
RAAN
144.4796°
Arg perigee
273.1354°
Mean anomaly
86.9395°
Rev number
19,174

§ Raw data

STARLINK-60821 56110U 23046T   26262.98079236 -.00000649  00000+0 -14058-4 0  99922 56110  43.0033 144.4796 0000897 273.1354  86.9395 15.27572307191743

JSON: /api/v1/satellites/56110 · /tle

For live sub-satellite position, see the globe view (requires WebGL).

§ Visibility from observer

Set your observer location to see the next 7 days of passes ≥ 10°. The values pass through the URL so the page stays shareable.

No JS? Fill the form by hand. The geolocation button needs JavaScript.